Location: Saint-Hippolyte
(43.6394°N, 4.7559°E)
Time: 16:09:11
(UTC+00:00)

Atlas Centaur 2 - Pass Details

Date: 24 October 2020
Orbit: 459 x 1309 km, 30.4° (Epoch: 23 November)

Event Time Altitude Azimuth Distance (km) Brightness Sun altitude
Rises 19:21:13 0° 237° (WSW) 4,284 6.5 -29.2°
Reaches altitude 10° 19:24:40 10° 227° (SW) 3,315 5.6 -29.8°
Enters shadow 19:31:02 29° 179° (S) 2,144 4.1 -31.0°
